Location: Azul
(36.7830°S, 59.8500°W)
Time: 04:17:50
(UTC-03:00)

LightSail 2 - Visible Passes

Search period start: 27 May 2020 00:00
Search period end: 06 June 2020 00:00
Orbit: 696 x 719 km, 24.0° (Epoch: 26 May)

Date Brightness Start Highest point End Pass type
(mag) Time Alt. Az. Time Alt. Az. Time Alt. Az.
27 May 7.4 19:39:25 10° NW 19:42:35 17° N 19:45:23 11° NNE visible
28 May 7.4 18:39:35 10° NW 18:43:00 18° N 18:46:25 10° NE visible
28 May 7.7 20:26:12 10° NNW 20:27:37 11° NNW 20:28:22 11° N visible
29 May 7.6 19:25:33 10° NW 19:28:03 14° NNW 19:30:33 10° NNE visible
30 May 7.6 18:25:25 10° NW 18:28:28 16° N 18:31:30 10° NNE visible
31 May 8.0 19:13:03 10° NNW 19:13:27 10° NNW 19:13:52 10° NNW visible
